sat.trackr.live / text

‹ back to catalog

LINGQIAO VIDEO A

NORAD 40959 · 2015-057B

PAYLOAD ACTIVE UNKNOWN

§ Identity

Operator
Country
PRC
Launch date
2015-10-07
Launch site
JSC
Launch vehicle
Mass (kg)
RCS (m²)
0.45

External: N2YO · Heavens-Above · Gunter

§ Orbital elements

Epoch: 2026-09-10T05:20:02.514912Z

Period
97.46 min
Inclination
97.6697°
Eccentricity
0.0016857
Mean motion
14.77488646 rev/d
Perigee alt
625.4 km
Apogee alt
649.1 km
Semi-major
7,015.4 km
B*
1.5703e-4
RAAN
243.8658°
Arg perigee
358.6414°
Mean anomaly
1.4749°
Rev number
58,796

§ Raw data

LINGQIAO VIDEO A1 40959U 15057B   26253.22225133  .00001073  00000+0  15703-3 0  99922 40959  97.6697 243.8658 0016857 358.6414   1.4749 14.77488646587962

JSON: /api/v1/satellites/40959 · /tle

For live sub-satellite position, see the globe view (requires WebGL).

§ Visibility from observer

Set your observer location to see the next 7 days of passes ≥ 10°. The values pass through the URL so the page stays shareable.

No JS? Fill the form by hand. The geolocation button needs JavaScript.